Wind_Speed
3 5 4 5 7 8 7 6 6 6 7 9 6 5 4 4 2 3 3 4 1 3 3 3 4 8 9 10 12 7 1 3 8 7 8 7 6 6 6 7 8 8 9 8 10 11 11 12 14 15 18 20 24 27 30 31 32 33 33 33 34 34 32 30 29 29 29 29 29 29 30 31 31 31 31 32 32 30 29 28 27 28 29 30 30 31
4 5 6 6 7 7 7 7 8 8 7 6 6 5 2 2 2 2 2 3 2 2 2 2 4 9 10 10 11 7 3 6 8 7 8 8 7 6 7 9 8 6 7 7 10 12 10 10 10 12 15 18 21 23 25 28 30 31 32 33 34 33 32 32 31 30 30 31 31 30 30 31 30 30 31 32 32 31 30 29 27 26 26 27 27 28
3 4 7 6 6 9 6 6 9 8 7 6 4 5 2 2 2 2 2 3 4 1 3 3 4 9 10 10 11 8 6 7 6 6 6 6 7 7 7 7 6 7 7 6 8 11 12 12 10 11 14 16 19 20 21 23 25 27 29 31 32 32 32 32 31 31 31 31 31 29 29 28 27 29 30 31 31 30 30 30 29 28 29 30 28 27
4 5 5 6 8 11 7 5 10 8 5 4 4 5 3 2 2 1 2 3 3 2 1 1 3 7 7 7 8 6 4 6 5 5 6 5 8 10 8 6 6 8 9 8 7 8 11 13 11 11 12 13 15 18 20 20 21 23 26 27 28 29 30 30 30 30 30 28 28 28 28 27 26 26 27 27 28 29 30 29 29 30 30 31 31 30
4 4 2 7 6 9 8 5 8 7 3 1 3 5 4 4 4 3 2 1 2 3 2 2 3 6 4 5 7 4 4 5 5 5 6 4 5 7 7 6 7 8 8 8 8 7 9 13 14 12 11 10 11 14 16 17 18 20 21 22 23 25 26 27 27 28 28 27 26 26 26 26 26 26 26 26 27 28 29 30 30 30 30 29 29 30
2 2 3 8 5 7 9 5 5 7 4 0 3 6 7 8 6 3 2 4 3 3 3 4 2 5 5 4 7 4 7 7 5 6 6 6 5 4 5 6 6 6 6 6 6 7 9 11 10 7 5 6 8 9 10 12 14 15 16 17 18 19 21 23 24 25 26 27 26 25 25 26 26 25 26 27 28 28 29 30 30 30 30 30 30 29
1 2 3 7 7 7 8 5 6 5 7 2 4 5 7 8 9 7 5 4 2 1 2 3 2 3 6 6 6 4 7 9 6 6 6 5 5 4 4 4 4 5 4 3 4 5 6 6 7 6 5 2 2 4 5 7 8 10 11 13 14 15 17 18 20 22 24 26 27 27 28 28 27 26 26 27 27 27 28 29 29 29 30 29 30 30
3 3 3 6 7 6 6 5 6 6 8 3 2 6 9 9 9 7 6 4 2 2 2 4 3 1 5 6 6 4 6 8 7 7 6 5 5 5 5 5 4 4 4 3 3 3 3 5 7 7 7 7 5 2 1 2 2 4 6 8 10 11 12 14 17 19 22 24 27 28 29 28 27 27 26 25 24 25 26 27 29 29 30 29 29 30
3 5 6 6 6 4 4 4 5 8 6 2 3 6 7 8 8 6 6 4 1 1 2 5 3 1 5 6 5 5 4 6 6 6 6 6 6 6 6 6 5 4 3 3 2 4 5 7 9 9 9 10 9 8 6 5 4 4 4 5 6 8 9 11 13 16 19 21 24 26 27 27 27 28 27 25 24 24 25 27 29 29 29 29 29 30
1 5 7 6 5 5 3 1 1 5 4 3 6 7 6 7 6 5 5 4 3 2 3 4 3 1 4 6 4 3 2 5 5 5 5 5 5 5 6 6 6 5 4 3 3 4 5 7 9 10 12 12 12 11 10 9 8 7 6 5 4 5 6 8 10 13 15 18 20 23 25 26 27 27 26 26 26 26 26 27 28 28 28 28 28 29
2 1 2 2 3 5 4 4 3 3 6 8 7 7 7 6 5 4 3 4 4 2 5 4 3 0 2 6 4 1 2 4 3 2 3 4 5 5 5 6 5 5 5 4 5 6 8 9 11 13 14 14 13 12 12 11 11 10 8 6 4 3 4 5 7 10 12 14 17 20 22 24 25 25 25 26 27 28 28 28 28 28 28 28 28 28
4 3 1 0 2 4 6 6 5 4 6 7 4 6 5 4 4 4 5 4 3 3 5 4 2 1 2 4 3 3 5 4 5 4 2 4 6 6 5 5 5 4 4 4 4 6 9 12 14 16 16 15 15 15 15 14 13 12 10 8 5 3 2 3 5 7 9 12 15 17 20 22 23 24 25 26 28 28 27 28 28 28 28 27 27 27
3 2 1 1 0 3 6 6 5 5 4 5 5 7 5 2 3 2 3 1 2 5 3 2 1 2 5 7 5 6 7 6 6 6 5 5 5 5 6 5 5 4 4 4 5 5 7 10 13 16 17 17 17 17 17 16 14 13 11 9 7 5 3 1 3 5 7 10 12 14 17 20 21 23 25 26 27 27 26 27 27 27 27 27 27 27
1 3 2 2 1 2 4 6 3 1 0 4 6 6 5 3 3 2 3 1 3 4 3 3 2 2 4 6 8 10 8 6 6 6 6 5 5 6 6 6 5 4 4 4 5 5 5 8 11 14 16 17 18 17 16 16 15 13 12 11 9 7 5 3 3 4 6 8 11 13 15 17 19 21 23 25 26 26 26 26 26 27 27 27 27 27
3 3 3 3 2 1 2 3 5 6 4 2 3 5 5 5 4 4 4 3 3 2 2 3 2 3 3 3 6 8 6 4 4 5 4 4 5 6 5 4 3 3 4 3 4 5 6 8 11 12 14 15 16 16 16 15 14 13 12 11 10 8 6 5 3 3 4 6 8 11 13 15 17 19 21 23 24 24 25 25 26 27 27 27 27 27
4 3 3 2 3 2 3 2 3 6 3 1 1 5 3 4 5 4 3 5 4 1 1 2 3 4 4 5 5 3 4 4 3 3 3 3 4 3 0 1 2 4 4 4 6 6 7 11 13 13 14 14 14 15 16 16 15 14 14 13 13 12 10 9 8 6 6 6 6 8 9 11 13 15 18 20 21 21 22 24 25 26 26 26 26 26
3 1 3 3 3 2 2 2 1 2 3 2 2 3 4 3 8 6 2 1 3 1 2 1 3 5 3 4 5 2 2 4 1 1 2 3 3 2 5 3 3 4 4 5 6 6 9 14 17 17 18 16 16 16 15 15 15 15 16 15 15 14 14 13 12 11 10 9 8 8 9 10 11 13 15 17 18 19 20 21 23 24 24 25 25 25
5 2 3 2 2 1 1 1 4 3 3 5 3 5 4 3 5 5 2 3 4 1 4 1 3 5 1 2 5 3 6 6 3 3 3 2 2 6 6 3 2 3 4 5 6 7 10 15 17 18 19 18 17 16 16 15 14 14 15 14 14 14 14 14 13 12 11 11 10 10 10 10 11 12 13 14 15 16 18 20 20 22 23 23 23 24
5 3 3 2 2 2 3 3 3 4 3 4 4 3 4 3 2 2 3 2 1 2 4 3 3 4 4 4 3 2 7 7 5 4 5 5 6 7 6 4 3 4 4 5 6 6 9 14 16 17 18 18 17 17 16 15 14 13 13 12 12 13 13 12 11 11 11 11 11 12 12 11 11 11 11 12 13 14 16 17 18 20 21 21 22 23
4 4 1 1 1 1 3 1 4 1 4 4 2 2 2 3 4 2 2 4 3 3 2 3 3 3 6 6 5 7 8 7 7 5 6 8 8 7 7 6 5 6 6 6 6 5 8 12 14 15 17 17 17 17 17 15 14 14 13 12 12 12 12 12 11 11 11 11 11 12 12 11 10 9 10 11 12 13 14 15 17 18 19 19 20 21
2 3 3 1 3 1 2 2 6 6 3 3 3 4 2 2 2 2 1 2 4 4 3 2 3 5 6 5 7 8 6 6 7 7 8 8 8 8 7 7 6 6 6 4 5 5 7 11 13 14 15 16 18 18 18 17 16 15 15 14 14 14 13 13 13 13 13 13 13 13 13 12 11 10 9 10 11 13 14 14 16 16 17 18 18 19
2 3 5 3 1 3 3 3 3 4 4 5 5 6 6 4 4 3 2 1 2 3 4 4 3 7 6 3 5 6 5 6 6 7 8 8 8 8 6 6 5 5 5 2 3 4 7 11 13 15 17 19 20 20 20 19 18 17 17 16 15 15 15 15 15 15 15 15 15 15 14 14 13 12 11 11 11 12 12 13 14 14 16 17 16 17
3 4 5 2 3 4 3 3 2 3 1 3 3 3 5 4 5 6 5 3 2 2 2 3 1 7 6 4 5 5 5 5 4 5 7 7 8 7 6 4 3 3 3 1 2 4 8 12 14 17 19 20 20 20 20 20 20 19 18 17 17 16 17 17 17 16 16 15 15 15 15 14 15 15 15 14 13 13 13 12 12 13 14 15 15 16
2 4 4 1 2 2 4 4 2 1 1 2 3 2 5 3 3 5 5 4 4 4 3 3 2 6 6 3 4 5 5 5 4 5 7 7 6 5 4 4 4 3 1 2 2 5 11 14 16 18 18 18 18 19 20 21 20 20 19 19 18 18 18 17 17 16 16 16 16 16 16 16 16 17 17 17 17 16 15 14 14 13 14 14 15 15
3 3 5 3 2 3 4 4 3 3 1 3 3 3 4 4 6 4 2 4 2 5 7 5 4 7 5 4 2 2 1 2 3 4 5 6 6 5 4 4 3 1 3 4 5 7 10 13 15 15 15 15 16 18 19 20 21 20 20 19 19 19 18 18 18 18 18 18 18 18 19 19 20 20 21 21 20 20 19 18 17 16 16 15 16 16
4 4 5 6 6 5 5 4 3 3 3 2 2 4 5 6 8 5 3 4 3 5 6 6 5 5 5 4 3 2 2 4 3 3 4 4 4 4 4 2 1 3 4 5 6 6 7 9 12 13 13 14 15 16 17 18 19 20 20 20 19 19 19 19 19 19 19 19 20 21 21 22 23 23 23 24 24 24 23 23 22 21 20 19 19 18
3 2 5 8 10 10 9 6 3 5 6 3 4 7 8 7 8 6 5 4 5 3 4 7 5 4 5 4 3 4 4 6 6 6 6 5 4 4 3 1 2 4 4 4 5 5 5 7 8 9 9 9 11 12 14 17 19 19 20 20 19 19 19 19 19 20 20 20 21 22 22 23 23 23 23 23 23 23 23 24 24 24 24 24 23 22
4 3 6 8 10 7 5 4 3 6 7 8 8 8 9 8 8 8 7 8 6 6 7 9 7 7 8 6 7 7 6 7 8 10 9 5 4 4 2 2 4 5 4 4 5 5 4 3 2 2 2 3 8 12 15 17 18 18 18 19 19 19 19 19 20 20 21 21 22 22 22 23 22 22 22 22 21 21 22 22 23 23 24 24 24 24
5 5 5 6 8 4 4 3 5 7 6 7 10 11 11 11 11 12 14 11 9 8 11 7 10 11 9 7 9 10 10 10 10 9 6 4 3 4 2 5 6 5 4 4 4 3 2 2 3 5 2 5 13 16 17 17 17 18 18 18 19 20 19 20 20 21 21 22 22 23 23 23 23 22 22 22 22 22 22 22 22 22 23 23 24 24
4 4 3 6 7 4 3 2 4 6 5 5 9 12 13 14 16 17 18 14 12 13 9 7 11 13 8 8 11 8 6 6 5 3 3 4 4 4 5 5 5 4 4 4 2 2 4 5 6 4 5 12 16 16 16 16 17 17 18 18 19 20 20 20 21 21 22 23 23 24 24 24 24 24 24 24 24 24 24 24 23 23 23 22 23 23
3 3 3 6 4 5 3 2 3 4 4 5 6 8 10 13 15 17 17 13 10 11 5 6 6 10 5 6 8 3 3 4 4 5 6 5 5 5 6 5 5 5 4 4 5 5 4 4 3 8 13 15 15 15 15 16 17 17 18 18 19 20 20 20 21 22 22 23 24 25 26 26 26 27 27 27 26 26 26 25 25 24 24 23 23 23
3 2 2 5 4 5 2 3 4 5 5 1 3 8 12 13 13 13 11 7 8 11 7 3 7 9 4 6 7 3 4 6 7 8 7 5 5 6 7 7 6 6 6 6 5 4 3 4 8 11 13 13 14 15 16 16 17 18 18 18 19 19 20 20 21 22 23 23 25 26 27 28 29 29 29 29 29 29 29 28 28 27 26 25 24 24
5 5 2 4 6 4 4 3 7 7 4 3 7 12 16 14 12 8 3 4 10 11 8 8 11 8 7 9 9 6 5 7 9 8 6 6 6 6 7 8 9 8 7 6 4 5 5 6 8 9 10 12 13 13 15 16 17 18 18 18 19 20 20 20 21 22 24 25 26 27 29 29 30 30 30 31 31 31 31 31 31 30 29 28 27 26
4 6 4 4 4 3 4 2 6 4 5 8 6 10 16 16 14 10 8 11 14 11 9 9 7 4 9 11 11 11 10 8 5 5 5 5 6 6 6 8 8 7 6 5 5 5 6 7 8 9 10 11 11 12 14 15 16 16 17 17 19 20 21 22 22 23 25 26 27 28 29 30 31 31 31 31 31 32 32 32 32 32 31 30 29 29
5 6 3 2 4 2 1 3 5 5 9 6 3 4 12 14 14 14 13 14 12 11 11 11 7 5 10 11 9 10 10 4 3 3 3 4 7 8 8 7 6 7 6 5 5 5 6 7 8 9 10 10 10 12 14 15 16 16 17 18 19 20 21 22 23 24 26 26 27 29 29 30 31 31 32 32 32 32 32 32 33 33 32 32 31 31
6 5 3 2 3 3 2 4 5 6 4 3 4 3 4 5 7 7 10 11 9 11 11 14 15 9 8 8 5 3 3 3 4 3 2 2 4 7 8 7 6 6 7 7 7 7 6 7 7 8 9 9 11 13 15 16 16 16 17 18 19 20 21 22 24 25 26 27 28 29 29 30 31 32 32 32 33 33 33 34 34 34 33 34 34 33
6 5 3 3 3 3 3 4 3 4 4 4 5 4 3 6 8 9 7 9 11 13 13 15 16 9 7 6 4 3 4 5 2 2 1 1 3 6 7 8 8 8 9 9 8 8 8 7 8 8 9 10 11 14 15 15 16 16 17 18 20 20 21 23 25 26 27 28 28 29 29 30 31 32 33 33 34 35 35 35 35 35 34 35 36 36
4 3 4 4 3 3 4 2 1 3 7 8 6 4 5 8 10 11 7 7 9 11 14 15 14 9 8 6 6 5 5 4 2 5 4 3 3 5 7 9 10 10 10 10 9 9 9 8 9 9 10 11 13 15 16 16 17 17 18 20 22 21 22 24 26 27 28 29 28 29 29 30 31 32 32 33 34 34 35 35 35 35 34 33 35 36
3 2 4 3 2 3 4 4 4 6 7 6 5 5 6 8 9 9 4 8 6 7 12 13 11 10 11 10 9 8 6 5 8 7 5 6 6 6 7 8 10 11 10 10 9 9 9 8 9 10 12 14 16 17 17 17 18 19 20 22 23 23 24 26 28 28 28 28 28 28 28 29 30 30 31 32 33 33 34 35 35 34 34 33 33 35
3 2 3 4 4 5 6 5 5 4 4 4 5 4 4 7 11 10 4 9 5 7 10 13 13 12 12 11 10 9 9 8 8 5 7 9 7 7 8 9 10 11 11 10 9 8 7 8 10 12 15 17 17 17 17 18 18 20 21 22 23 23 24 26 26 26 26 26 27 27 27 28 29 30 30 31 33 33 33 33 34 34 34 34 34 34
3 2 3 6 7 8 9 7 4 4 5 5 4 3 4 7 8 7 8 7 5 7 7 10 13 11 10 12 10 8 6 4 3 7 10 9 8 7 9 11 11 11 11 10 8 7 7 8 11 13 14 15 15 16 17 17 19 20 20 21 21 22 22 24 24 24 25 25 26 27 28 28 29 30 31 31 32 33 34 33 34 35 35 34 35 35
5 3 3 5 6 6 7 6 4 4 4 3 4 2 4 5 5 7 6 2 4 5 2 3 7 6 9 11 9 5 3 3 7 11 10 9 8 7 8 11 11 11 10 9 8 8 9 11 12 13 14 14 14 15 16 16 18 18 19 19 19 20 22 23 23 24 25 26 26 27 29 29 30 31 32 33 33 34 35 35 34 34 34 34 34 34
6 5 3 4 5 3 4 5 5 4 3 7 8 3 2 4 5 5 2 2 1 4 3 3 4 6 8 8 6 6 7 7 9 11 10 8 8 8 9 11 11 10 10 9 9 10 10 12 13 13 13 14 14 14 14 14 16 17 17 18 19 20 22 23 23 25 26 27 28 29 30 31 32 32 33 34 33 33 35 36 35 35 34 32 32 33
4 5 4 4 4 4 5 6 5 4 5 8 8 4 6 5 3 4 5 2 1 3 4 3 3 4 8 10 9 9 9 9 9 9 9 8 7 7 9 11 11 10 10 9 8 9 10 11 12 12 12 13 13 13 12 13 15 16 18 19 20 22 22 23 24 25 27 28 29 30 31 32 32 32 33 33 33 33 34 35 35 35 35 31 29 29
4 4 4 4 3 3 4 5 3 3 5 5 2 1 3 2 1 4 6 4 3 4 4 5 5 5 7 11 11 9 9 9 9 8 8 7 6 7 9 11 11 9 8 7 7 8 10 10 10 10 11 12 12 12 13 14 15 17 19 19 20 21 22 24 25 26 28 29 30 31 31 32 32 32 32 32 31 31 33 34 34 35 35 33 30 28
2 1 2 2 2 2 2 3 2 1 2 2 1 2 2 1 0 4 5 4 4 4 4 5 7 8 9 11 11 9 8 9 9 8 7 7 6 7 10 10 9 8 7 6 7 9 8 7 6 7 9 11 12 13 16 17 17 18 19 19 20 20 22 24 26 28 29 30 31 31 31 32 33 33 33 33 31 30 31 31 31 33 35 33 30 28
3 1 2 1 3 3 3 3 2 1 3 2 2 2 1 1 1 2 3 4 5 5 5 5 8 8 8 9 11 11 8 9 10 8 6 6 6 6 8 9 7 6 5 6 7 7 6 5 5 6 9 13 15 17 19 20 19 19 19 19 20 21 22 25 27 29 30 30 30 30 30 30 32 33 34 34 32 32 32 31 29 30 32 32 29 27
2 3 3 2 3 4 3 4 3 3 4 3 2 1 2 1 1 2 2 3 6 7 6 5 6 7 7 7 10 11 9 7 9 8 6 5 5 6 7 7 4 3 4 4 5 5 5 5 7 10 13 16 18 20 20 20 20 20 19 19 19 20 23 26 27 27 28 28 27 26 26 27 29 30 32 34 33 32 32 32 30 30 33 33 29 27
2 3 3 3 2 1 2 3 2 3 4 4 6 5 3 3 4 5 5 5 8 9 8 7 6 5 7 7 8 11 10 6 6 7 7 5 5 6 6 4 2 1 2 3 4 5 7 9 11 13 14 16 18 19 20 20 19 19 18 18 18 21 24 26 25 24 25 25 24 23 24 25 25 26 29 32 33 33 32 31 29 29 34 39 33 26
3 4 3 3 3 2 5 5 5 3 1 5 8 7 6 5 7 8 8 7 8 9 10 10 8 7 8 8 8 10 10 6 6 7 7 6 6 6 5 3 1 1 3 5 6 8 10 12 12 13 15 17 18 19 19 20 19 18 17 17 19 22 23 22 22 22 21 21 22 23 24 25 25 26 27 28 29 32 35 37 35 29 29 36 37 31
5 6 5 5 5 7 8 9 8 6 4 5 6 8 8 7 8 10 10 9 9 8 10 12 11 8 7 7 7 11 10 8 9 9 7 6 8 7 4 3 2 3 5 7 8 10 12 13 14 16 18 19 19 19 19 19 18 17 17 20 21 21 21 21 21 21 21 20 22 23 23 25 26 27 27 26 26 26 29 35 41 40 35 31 32 34
Wind_Direction
89 114 151 171 178 184 175 148 138 143 129 131 124 107 139 155 193 246 263 309 38 144 253 252 266 281 277 277 278 277 328 270 270 270 266 260 255 254 252 253 249 242 252 273 280 274 269 265 260 256 254 251 248 246 244 241 240 240 239 237 238 238 234 229 225 224 224 224 225 225 228 231 234 234 235 237 241 244 244 243 243 244 243 243 243 242
81 137 198 206 182 161 138 122 108 95 87 98 125 125 127 164 189 236 233 317 356 168 269 356 320 278 268 271 271 273 283 261 249 246 256 260 258 256 251 255 258 261 275 289 287 285 283 277 267 258 253 248 246 245 242 241 241 240 238 238 239 237 234 230 226 223 223 224 224 224 227 230 232 234 235 236 239 241 243 245 247 250 252 250 249 249
106 190 220 203 145 107 86 93 95 87 87 85 107 127 147 213 215 277 286 335 8 157 269 351 335 280 269 269 267 263 255 254 248 240 253 267 269 266 259 265 281 285 290 293 289 292 291 287 279 268 260 253 250 248 245 244 242 239 238 238 239 236 234 233 229 225 225 226 227 228 230 232 234 236 238 240 241 243 243 244 244 246 248 248 248 252
165 244 231 172 139 110 81 76 97 87 80 89 108 128 172 234 164 203 258 332 19 79 254 308 307 286 286 289 281 270 257 271 283 268 262 260 259 266 275 285 285 279 284 290 287 291 294 293 290 282 277 269 258 250 246 244 241 239 239 239 237 235 234 234 231 229 227 227 229 231 234 236 238 240 242 242 243 244 245 245 246 246 244 242 243 247
173 277 171 137 131 119 108 100 115 108 73 75 145 140 165 193 173 190 199 57 13 32 39 21 324 296 312 325 292 301 338 304 311 321 301 286 267 272 290 286 269 265 270 277 282 291 294 293 294 294 288 275 263 255 250 247 245 243 242 241 238 237 236 235 234 232 229 228 228 230 233 236 238 241 241 241 241 242 244 245 246 246 246 246 247 249
181 293 143 131 118 117 121 136 158 138 111 169 205 174 170 165 154 149 110 80 46 9 4 22 349 289 316 318 273 304 345 315 329 353 323 315 315 304 302 292 282 279 269 265 276 284 289 296 306 322 314 273 263 261 256 249 248 247 246 243 240 238 237 236 234 232 229 227 226 226 226 228 229 233 234 235 238 239 242 244 244 245 247 248 249 250
137 0 94 130 132 127 130 164 198 149 118 168 213 162 144 130 126 134 122 93 103 202 342 42 138 257 317 309 273 311 327 304 325 353 333 330 338 340 322 306 306 301 292 281 279 278 289 322 350 18 34 15 289 263 246 238 239 241 242 240 239 239 238 237 234 231 229 227 226 226 227 228 228 230 234 237 239 242 244 247 248 249 249 250 248 248
124 93 79 107 114 122 139 182 206 149 127 183 199 128 129 124 131 142 116 99 167 204 338 20 103 211 301 279 275 322 321 310 336 344 337 349 348 346 337 324 326 313 303 301 309 325 350 17 24 34 45 50 56 65 154 178 195 213 222 228 232 235 236 236 233 231 230 229 228 228 229 232 233 236 241 244 245 247 249 251 252 252 252 251 250 249
112 154 173 140 121 145 176 217 198 136 113 228 183 126 129 122 126 125 99 96 40 48 298 331 35 179 266 275 303 354 333 310 330 324 321 339 339 342 345 339 338 328 312 297 316 348 9 31 40 49 56 61 70 78 85 89 97 120 150 187 208 220 225 228 229 231 232 232 233 233 232 234 238 242 245 248 250 251 251 252 253 254 254 254 253 253
96 182 187 145 138 174 178 328 177 117 104 173 140 101 83 78 84 83 89 106 56 50 232 284 1 203 263 285 307 13 317 271 284 290 289 301 308 318 332 337 339 339 339 329 332 355 22 44 52 61 67 71 77 82 85 87 88 95 107 131 165 193 210 220 225 229 233 234 235 237 237 238 242 245 248 250 251 252 253 253 254 254 255 256 256 255
310 221 183 111 139 168 137 69 41 79 122 137 118 83 68 42 38 52 53 84 71 331 248 259 309 285 272 283 266 209 221 217 202 235 283 309 322 323 326 333 334 336 342 344 355 22 49 62 66 71 73 74 79 82 84 85 85 87 93 102 120 156 192 215 228 233 238 239 238 240 242 244 246 248 249 250 250 251 250 252 254 255 256 256 256 256
5 35 12 55 119 128 105 71 41 45 98 106 99 98 87 14 11 27 1 42 102 250 257 262 276 151 210 261 258 246 252 220 180 178 225 299 322 328 323 324 326 326 332 350 14 37 53 59 61 65 67 70 75 78 77 77 77 77 80 82 87 101 147 214 233 241 245 246 245 247 248 250 252 252 251 251 252 253 252 254 257 257 257 257 256 256
36 42 317 2 223 148 113 86 42 1 24 73 108 115 102 22 17 10 317 347 198 238 261 263 225 183 232 250 257 262 258 234 212 207 218 258 293 314 319 321 323 324 338 11 42 50 52 55 57 62 66 69 72 73 74 76 76 75 75 73 71 66 53 350 273 265 260 257 257 256 256 257 258 258 257 257 259 260 260 261 262 261 259 258 258 256
19 311 305 84 260 219 132 125 131 239 197 129 143 135 131 121 98 222 261 295 248 252 274 269 249 240 268 263 245 239 239 227 218 220 226 242 265 287 299 304 305 321 351 27 64 70 66 69 71 73 75 75 75 74 75 76 77 78 78 76 74 66 52 24 331 296 281 275 272 269 267 268 267 266 265 266 267 268 268 267 266 266 265 263 263 263
161 260 236 159 215 208 150 168 150 139 133 162 166 128 145 157 144 192 212 189 221 259 297 284 257 187 205 257 227 219 246 264 245 253 261 253 256 269 281 291 307 348 15 46 81 84 83 86 87 83 79 77 75 71 68 66 66 66 66 66 65 63 58 45 19 330 303 292 283 277 275 275 274 274 274 273 273 273 273 273 272 271 271 270 271 272
152 230 269 288 277 149 157 229 114 105 112 225 121 103 156 184 135 140 176 169 168 120 301 259 239 216 217 264 264 243 272 273 260 283 284 275 286 284 204 51 31 29 34 52 66 63 60 66 68 65 65 66 63 59 55 51 50 49 46 44 44 44 42 36 29 17 359 338 318 304 295 289 283 280 279 279 279 279 279 279 278 277 276 276 276 276
150 253 320 341 346 58 169 229 81 104 161 150 121 162 208 164 114 115 155 72 81 141 257 232 247 293 316 280 300 37 183 229 217 119 184 234 289 109 121 107 74 62 56 61 66 59 49 48 49 49 50 49 49 48 47 46 43 40 36 31 30 31 30 26 23 19 12 1 351 339 325 313 304 297 292 290 289 287 286 284 281 282 281 279 279 279
152 118 341 25 72 5 289 126 61 40 113 123 171 198 178 116 99 107 121 23 41 204 277 294 229 287 343 257 323 66 161 219 222 156 150 201 178 140 144 149 119 88 75 73 69 63 52 47 46 47 48 46 46 47 48 49 44 39 33 24 22 23 22 20 17 15 9 0 356 350 341 333 323 316 311 305 301 295 289 286 285 286 285 284 284 282
127 110 333 11 134 296 342 79 91 23 48 119 178 168 112 133 165 96 125 136 100 210 279 305 271 264 200 218 291 172 185 216 211 155 132 163 165 152 159 161 131 100 89 79 67 56 47 45 44 44 46 48 51 51 51 51 48 42 35 29 27 24 21 18 12 9 5 358 353 351 347 343 334 328 324 317 311 303 295 293 292 290 290 290 288 284
111 118 222 306 258 279 4 97 175 189 17 41 103 113 74 128 162 153 145 159 166 184 246 307 317 262 223 216 213 207 209 206 191 164 159 175 173 164 163 153 130 111 101 85 68 54 45 45 45 45 45 48 53 55 54 54 52 48 42 38 35 29 24 22 16 12 8 3 358 356 356 353 347 341 333 327 320 312 308 305 301 298 298 297 293 289
93 122 165 310 324 214 173 218 194 175 146 103 128 160 162 73 120 156 90 111 138 157 178 244 296 267 247 213 199 214 221 204 186 168 173 183 178 173 163 149 137 120 110 90 62 43 39 45 47 47 48 51 56 58 57 55 51 48 44 40 36 31 26 23 21 19 15 13 10 9 10 8 7 4 352 342 333 326 324 319 312 308 305 301 299 296
135 132 145 139 233 197 216 261 213 184 174 161 170 181 172 141 123 143 247 236 121 133 165 170 248 270 257 202 206 219 214 220 208 171 173 180 176 175 166 162 153 127 123 104 29 20 34 44 44 44 46 48 52 53 52 51 48 46 43 40 37 33 29 24 22 22 21 21 20 19 20 18 18 17 10 3 353 343 338 330 323 317 309 305 304 300
129 106 114 146 208 206 254 290 218 219 208 146 185 185 156 149 135 149 204 220 125 114 149 123 236 274 263 210 216 233 228 239 236 184 179 179 175 174 170 182 194 168 174 255 353 28 49 52 48 46 45 45 47 48 49 49 47 45 41 38 36 32 28 24 21 21 22 23 25 26 25 22 21 19 15 12 6 359 353 344 337 329 319 316 314 307
125 106 107 71 310 315 322 341 21 351 64 145 237 189 154 179 145 145 180 165 137 165 147 83 284 268 274 253 232 244 242 241 232 198 182 176 177 179 179 198 206 194 243 337 25 56 54 51 46 43 41 40 43 44 47 48 47 46 43 40 38 33 29 26 23 22 23 24 26 25 23 20 18 16 13 11 8 5 1 355 350 343 334 328 323 318
185 156 129 113 42 5 350 355 341 316 241 201 226 188 166 129 94 96 116 103 136 200 159 146 234 253 275 295 302 294 248 207 223 209 183 170 174 179 184 194 188 141 23 21 44 52 51 46 41 38 35 36 39 42 45 48 48 47 45 42 39 37 36 34 31 30 28 27 26 23 22 20 16 13 11 8 6 3 1 358 354 350 345 338 332 328
173 174 151 148 161 184 196 203 226 221 190 208 204 178 176 143 137 151 114 115 220 221 161 170 223 254 280 307 342 346 110 130 164 213 213 201 194 194 186 172 58 47 47 52 57 59 60 51 41 37 33 33 39 43 44 46 46 46 45 43 40 37 38 38 37 35 33 29 26 24 22 19 16 13 10 7 4 0 358 356 353 351 349 344 339 337
131 183 188 182 193 198 191 194 180 126 141 182 177 170 174 168 165 142 105 168 199 151 180 216 195 194 247 256 254 246 185 163 171 188 211 231 245 246 230 211 41 44 49 63 75 77 69 58 44 35 32 34 42 45 46 45 44 42 40 39 38 37 38 39 38 36 33 29 26 24 22 19 16 13 9 6 3 359 357 355 352 350 349 346 343 341
102 204 211 198 211 207 165 175 161 130 158 177 161 163 173 172 161 151 185 206 147 123 233 230 173 192 232 230 230 228 203 194 194 190 198 211 227 237 233 88 81 78 69 73 78 77 84 86 68 41 29 40 48 48 47 44 41 39 36 33 34 35 36 38 38 35 32 29 27 25 22 20 17 14 11 8 4 1 358 355 352 350 348 345 343 342
130 204 211 191 215 205 122 165 171 147 158 165 164 172 173 170 172 186 213 207 148 184 237 197 165 206 225 213 221 218 201 197 193 188 185 173 190 204 144 95 96 102 99 88 76 80 130 169 196 199 190 51 46 43 42 39 36 35 34 31 32 34 35 36 36 35 32 29 27 24 21 19 17 15 12 9 6 4 1 358 355 351 348 345 342 340
152 204 184 169 208 215 163 190 172 146 138 154 179 181 172 177 186 197 215 208 186 215 230 148 179 220 214 200 217 219 203 187 162 156 161 160 179 174 140 127 127 126 113 104 121 191 190 189 191 171 70 48 42 37 35 34 31 31 30 30 33 34 34 34 33 32 30 27 24 21 18 16 15 13 11 9 7 5 3 360 357 353 350 346 342 339
196 210 150 139 196 244 216 170 146 132 135 162 192 191 181 189 196 206 218 209 198 229 223 125 218 250 232 212 229 220 140 137 150 194 204 196 187 161 151 158 150 138 139 162 186 193 185 169 102 53 44 41 36 33 31 28 26 27 27 28 30 31 30 31 30 28 25 22 19 17 14 13 11 10 9 7 6 4 2 1 358 355 351 348 343 340
177 186 77 109 174 251 272 149 137 85 70 93 219 202 194 197 202 211 216 185 184 217 207 163 251 254 196 195 231 220 146 161 195 211 212 208 192 170 166 167 161 161 171 179 175 150 109 63 45 40 37 35 33 31 27 22 22 23 23 24 25 26 26 26 25 23 20 18 15 13 10 8 7 6 5 3 1 1 359 358 357 355 352 349 345 341
155 151 125 141 179 258 324 130 129 92 73 264 243 207 197 202 206 204 211 198 199 203 190 204 237 229 159 174 210 216 197 207 216 210 202 204 199 186 175 163 162 171 168 152 120 86 67 54 48 44 39 36 32 29 24 20 19 17 17 20 20 20 21 21 20 17 15 13 11 9 7 5 3 2 1 359 358 356 356 355 354 353 351 348 345 342
138 141 163 163 162 253 299 105 108 119 208 235 234 190 187 198 199 189 203 216 209 202 206 223 234 173 155 176 194 204 214 222 212 186 181 187 180 174 169 158 152 147 130 109 94 84 73 63 56 48 43 39 32 28 24 20 18 16 17 19 18 18 17 15 14 12 10 9 8 5 3 1 359 358 357 356 355 353 353 352 350 350 348 345 343 341
146 142 161 143 122 161 274 97 124 205 228 245 288 188 188 194 190 192 216 225 212 209 226 243 245 185 177 190 196 204 213 207 89 105 142 176 172 156 146 143 137 124 115 110 108 102 85 71 60 49 44 41 31 25 21 18 17 16 17 18 16 15 13 11 9 7 5 4 3 1 360 357 355 354 352 352 351 350 349 349 347 347 345 342 340 338
150 147 137 131 134 129 130 162 194 235 260 281 288 255 174 151 150 186 239 252 226 208 214 232 237 214 181 199 216 203 181 129 79 61 62 95 146 139 135 142 140 131 131 129 120 112 96 74 62 51 44 40 31 23 18 15 14 14 14 15 14 12 9 7 4 2 1 360 358 357 356 353 351 350 348 348 347 346 346 346 345 345 343 340 338 336
145 150 139 174 183 141 152 203 241 315 313 257 242 232 157 144 154 174 225 251 228 205 199 221 232 211 163 183 195 140 128 114 70 321 282 98 111 120 127 136 136 132 131 127 114 101 89 70 59 52 43 39 32 21 15 11 10 11 12 12 11 9 6 3 1 359 356 355 353 352 351 349 347 346 346 345 345 343 343 343 342 343 341 338 335 334
132 150 155 188 199 128 135 204 265 270 255 239 220 204 181 177 171 165 190 246 233 199 194 213 222 195 160 166 170 155 134 127 210 239 212 179 156 121 113 121 127 124 118 113 100 84 73 60 53 47 38 35 30 19 12 9 8 9 9 9 8 6 4 1 358 355 351 349 348 347 347 346 344 343 343 342 342 340 339 339 339 339 338 336 332 330
93 85 120 155 193 147 164 209 209 220 245 241 213 205 188 171 144 126 170 256 245 188 189 204 209 191 175 173 169 157 147 183 226 226 180 170 169 139 127 126 124 119 108 98 85 72 59 48 45 42 33 29 24 16 9 7 6 6 6 5 4 2 360 356 352 348 345 343 342 341 341 341 340 340 339 338 337 336 335 335 334 334 334 333 330 328
127 115 135 167 196 193 194 218 231 236 255 245 228 232 195 152 125 119 201 254 229 177 182 189 198 202 185 169 162 164 176 207 225 197 155 154 147 133 134 131 123 117 106 91 77 65 56 43 37 34 29 23 16 10 6 4 4 4 2 0 359 358 355 349 344 341 338 336 336 336 337 337 336 336 335 334 333 332 332 331 331 331 331 330 329 327
157 162 181 192 202 205 205 220 252 256 245 230 217 206 166 138 131 164 217 235 198 191 194 185 193 199 173 159 167 180 193 211 167 138 134 133 128 126 128 125 119 111 99 89 74 60 50 40 34 31 27 20 11 8 6 2 1 0 356 354 355 352 345 339 336 335 334 333 334 333 334 334 334 333 333 332 332 330 328 329 329 328 328 328 327 325
174 173 188 193 198 209 211 217 239 257 244 171 145 170 163 150 181 208 216 215 187 199 207 172 182 175 154 163 176 169 137 106 114 121 124 128 130 128 126 121 112 99 89 78 60 42 28 24 26 25 21 17 11 9 6 360 356 353 348 347 347 341 335 333 334 334 333 333 332 332 332 332 332 332 331 330 330 328 326 326 327 326 325 325 324 323
173 167 180 189 184 185 202 207 212 237 216 130 120 121 205 191 208 206 158 38 190 179 152 139 162 162 156 155 145 124 119 116 117 119 122 127 124 120 119 112 99 87 74 59 43 27 15 14 17 15 13 12 10 9 6 356 349 344 340 340 339 333 331 334 335 334 333 332 332 332 331 330 329 329 328 327 328 326 324 324 324 323 323 322 321 319
180 175 187 196 187 172 190 211 208 191 181 158 143 169 204 200 193 166 148 121 182 179 168 140 138 163 158 141 131 132 127 121 124 125 122 122 121 113 103 93 88 81 67 55 41 18 9 10 9 7 8 8 6 4 1 353 345 341 339 338 334 331 333 336 335 333 332 332 331 330 328 326 325 324 324 324 325 323 321 322 322 321 320 319 318 315
214 195 175 175 185 175 182 212 221 188 191 186 149 188 214 204 102 138 144 136 164 188 178 146 141 151 143 132 129 131 130 130 134 130 122 120 114 104 96 89 85 79 66 54 35 13 10 12 8 359 355 357 359 356 352 353 350 342 338 336 334 334 336 336 334 333 332 330 329 327 325 322 321 321 321 322 323 321 319 319 319 317 317 316 314 311
261 206 129 143 201 232 218 197 187 213 246 236 11 341 268 293 118 162 150 138 163 173 152 142 148 146 143 139 131 126 133 138 129 118 116 116 104 96 98 93 82 72 61 44 23 10 12 20 10 346 338 344 352 351 350 353 353 344 339 338 338 338 337 335 334 332 330 329 327 326 325 323 322 322 322 321 321 319 317 315 314 312 311 309 307 306
291 171 121 151 203 205 227 229 196 218 278 280 343 346 324 357 335 207 175 162 153 139 123 128 136 135 138 137 130 130 138 136 126 121 116 112 109 104 98 90 77 62 48 32 18 11 17 21 2 342 339 345 351 352 350 351 351 348 344 344 344 343 338 335 333 330 328 328 327 325 326 325 322 322 321 320 320 319 316 314 311 307 305 302 302 302
248 156 146 207 201 183 224 264 278 292 277 254 228 223 197 168 69 60 96 121 117 109 101 100 115 128 132 129 127 129 130 129 128 129 123 114 113 106 97 92 84 60 33 22 22 22 22 14 2 356 352 350 352 351 348 348 349 348 348 350 351 345 336 331 329 327 325 326 325 323 323 322 320 320 319 318 318 316 313 312 310 305 301 298 296 294
157 160 174 182 181 211 281 272 286 335 314 261 230 222 199 168 141 110 104 114 114 111 103 82 69 88 114 126 131 125 122 123 124 122 125 126 117 110 110 110 103 53 20 19 22 17 13 9 4 359 354 351 350 348 347 348 349 351 355 355 346 336 330 328 326 324 323 324 323 321 320 318 316 316 316 315 315 314 310 307 304 300 298 299 297 289
147 179 179 121 121 228 239 212 179 154 245 242 224 199 169 163 155 137 133 135 130 129 124 107 82 68 84 105 126 130 127 128 126 123 126 127 125 129 136 137 126 64 23 14 8 3 5 6 2 357 354 352 350 350 349 350 352 357 357 343 330 328 330 329 325 321 320 321 321 320 320 317 315 315 314 312 311 311 310 308 305 297 291 295 298 294
183 188 172 153 183 221 224 204 183 177 215 231 199 165 160 173 164 149 149 150 145 145 140 130 122 107 84 78 106 127 133 135 137 137 132 126 133 138 131 109 72 37 18 8 3 1 1 2 1 358 356 353 352 352 352 352 354 351 336 325 327 334 335 329 323 317 316 318 318 319 319 317 315 314 313 311 310 309 308 308 309 306 298 292 292 296
Height
806 810 816 817 819 819 820 822 822 825 827 830 836 838 841 841 843 851 851 855 857 847 846 850 848 843 837 832 828 829 836 834 829 828 826 825 825 825 825 823 823 822 820 819 821 821 821 822 823 824 824 825 826 827 828 829 830 831 833 835 835 837 840 842 844 846 848 850 851 852 853 853 854 855 856 856 857 859 860 862 863 863 864 864 865 866
808 812 816 815 818 821 826 829 826 828 831 832 834 836 844 846 843 850 852 853 858 848 846 855 850 840 835 830 826 829 831 827 823 822 820 820 821 822 821 820 821 821 820 820 819 820 820 821 821 822 822 822 823 823 824 826 826 828 830 831 832 835 837 838 841 843 844 846 847 848 849 850 852 853 853 854 855 856 857 859 861 862 862 863 863 865
814 814 814 819 826 828 833 832 824 827 832 834 840 839 842 847 847 851 853 853 856 847 844 852 847 834 830 828 825 827 827 822 823 824 821 821 820 819 819 819 821 820 818 819 818 818 818 819 819 819 820 820 820 821 822 823 824 826 827 828 830 832 834 836 838 840 841 843 845 846 848 849 850 850 851 852 853 855 856 856 858 859 859 860 860 861
818 815 817 827 827 822 829 832 824 829 836 837 840 839 841 849 846 843 847 853 856 853 850 850 845 833 827 826 821 825 832 827 827 828 826 828 824 820 821 822 822 819 817 817 817 817 817 817 817 817 817 817 818 819 819 821 822 823 824 825 828 830 832 834 836 838 840 842 844 845 846 847 848 849 849 851 851 852 853 854 856 856 857 857 857 858
815 822 829 830 824 818 826 831 825 825 836 843 840 834 837 844 845 844 847 851 852 856 856 847 839 830 825 823 816 822 832 825 825 826 820 825 828 824 824 822 821 820 818 817 815 816 817 815 815 815 815 815 815 816 817 818 819 820 822 824 826 828 830 832 834 836 839 841 843 844 845 846 846 846 847 848 849 850 851 852 853 853 855 856 856 856
815 830 833 825 822 821 823 827 825 823 832 842 838 833 834 834 840 848 849 846 845 849 856 853 842 831 825 820 815 821 825 816 821 823 815 820 824 823 823 820 820 819 818 818 816 816 815 814 814 813 813 813 813 814 815 816 817 818 821 822 824 826 828 830 832 834 837 838 840 841 842 842 843 843 843 844 845 847 848 849 850 851 852 853 854 855
823 833 831 821 822 823 822 825 826 826 830 834 836 839 840 836 838 844 842 842 844 847 860 863 850 839 830 816 815 828 825 813 816 819 817 821 821 820 821 819 819 818 817 817 816 815 814 812 812 811 812 813 812 813 813 814 815 817 818 820 822 824 825 828 830 832 834 835 837 838 838 839 839 840 841 842 844 845 846 847 847 848 849 850 851 852
827 831 829 823 822 824 824 824 826 827 825 829 840 844 838 833 836 841 840 841 848 852 859 862 853 849 843 822 820 833 823 809 813 817 818 820 819 820 820 819 819 818 817 816 814 813 813 811 812 811 812 812 812 812 812 813 814 815 817 818 820 822 824 826 827 829 831 832 833 834 836 837 838 839 839 841 843 843 844 845 844 845 845 847 848 848
825 824 823 822 821 823 824 826 830 826 823 835 851 850 841 838 840 843 841 843 855 855 850 857 858 854 845 826 824 832 819 809 816 820 819 819 820 820 819 818 818 817 817 816 814 812 812 811 811 811 811 811 812 812 812 813 814 815 816 817 819 821 822 824 825 827 828 829 831 832 834 835 836 837 839 840 841 841 842 841 841 842 842 843 844 845
825 824 823 820 816 821 831 839 839 825 822 843 856 852 848 850 848 847 845 843 854 855 849 862 869 856 840 823 821 827 820 816 819 820 820 820 821 821 819 819 817 817 817 815 815 813 812 812 811 811 812 811 812 812 813 813 814 815 816 817 819 820 821 823 824 825 827 828 830 831 832 833 834 835 837 838 838 838 838 837 838 839 839 840 841 841
826 827 827 824 821 828 838 844 845 836 834 845 846 841 842 847 847 850 853 849 852 856 857 873 879 864 846 826 817 820 820 820 820 819 820 819 819 820 819 819 818 817 817 815 815 814 813 813 812 812 812 813 813 813 814 814 814 815 816 818 819 820 821 822 824 825 826 828 829 830 831 831 832 833 834 834 833 834 834 834 835 836 836 837 837 838
825 823 825 828 831 834 833 836 845 846 845 841 833 832 840 847 850 851 855 855 854 857 863 880 884 871 853 827 814 818 820 822 821 817 818 817 818 820 819 819 820 819 819 817 816 815 814 813 813 813 812 813 814 814 814 815 815 816 817 818 820 820 822 823 824 825 826 828 828 829 830 830 830 831 831 830 830 831 831 831 832 833 833 834 834 835
822 822 827 830 833 831 823 830 844 844 842 837 831 834 842 854 860 855 860 865 861 860 869 882 880 867 851 827 814 816 814 818 821 818 818 818 819 820 820 820 820 820 820 818 817 816 815 815 814 814 813 814 815 814 815 816 816 818 818 819 820 821 822 823 824 825 826 827 827 828 829 828 829 829 829 829 828 829 830 830 830 830 830 831 831 832
822 825 828 826 828 827 820 825 836 838 837 835 832 833 838 854 863 862 873 878 866 862 874 885 874 856 845 826 813 812 811 816 821 820 822 824 823 822 822 822 821 821 820 819 819 818 817 817 816 816 816 816 816 816 817 818 818 819 819 820 821 822 823 823 824 825 825 826 826 827 827 827 828 828 828 828 827 828 828 828 828 828 828 828 828 829
820 823 823 822 824 825 822 822 824 827 833 836 836 834 833 840 844 851 861 856 852 863 876 880 862 839 828 818 811 813 816 820 821 822 827 828 829 827 825 824 821 820 821 820 819 819 818 818 817 817 818 817 818 818 818 819 819 820 820 821 822 823 823 824 824 824 825 825 825 825 826 826 826 826 826 826 826 826 826 826 826 825 826 826 826 826
817 819 823 828 829 825 822 824 823 822 830 840 843 836 832 830 832 856 875 867 863 866 866 867 853 833 823 814 815 820 818 819 821 821 823 822 824 825 821 820 820 819 820 818 817 818 817 817 817 817 818 818 818 818 818 819 819 820 821 821 822 822 823 823 823 823 823 823 824 824 824 824 823 823 823 823 823 824 823 823 823 823 823 823 823 824
816 820 826 830 830 828 826 827 826 822 825 837 840 835 837 839 835 855 882 887 879 860 851 858 846 831 826 813 810 818 813 813 818 817 818 818 819 820 817 818 820 820 820 819 818 818 817 817 817 816 817 817 818 818 818 819 819 819 820 820 821 821 821 822 822 822 822 821 822 822 821 821 821 821 821 821 821 821 821 821 821 820 820 820 821 821
809 820 830 828 825 830 834 831 828 828 828 830 833 831 838 844 837 838 853 870 876 860 850 857 847 833 831 817 807 812 809 808 814 815 817 819 818 816 817 819 821 820 820 820 820 820 819 819 818 818 818 818 818 818 819 819 819 819 819 820 820 820 820 821 820 820 820 820 820 820 820 820 819 819 819 819 818 818 818 818 818 818 818 818 818 818
802 813 829 834 828 829 833 827 825 832 832 828 828 830 831 834 835 838 844 851 861 861 851 855 860 850 838 821 805 805 805 803 810 815 815 816 816 815 816 819 820 820 820 820 820 821 821 821 821 820 820 819 819 819 819 819 819 819 820 820 820 820 820 820 820 820 819 819 818 818 818 818 817 817 817 816 816 816 816 816 816 816 816 816 816 816
799 806 823 834 831 829 828 824 823 828 833 832 831 832 831 831 832 836 842 840 842 854 854 850 852 841 828 820 803 796 802 803 808 814 813 813 814 813 816 818 819 819 818 819 821 822 823 823 823 822 822 821 821 820 820 820 819 820 820 820 820 820 820 820 820 819 819 818 817 817 817 816 816 815 815 815 814 814 814 813 814 813 813 813 813 813
799 801 815 832 834 830 826 823 821 820 826 830 829 831 832 836 839 836 842 846 838 843 850 847 839 822 815 817 804 796 803 805 807 810 809 812 814 813 816 817 817 818 818 819 821 823 825 825 824 824 824 823 822 821 821 820 820 820 820 820 820 820 820 819 819 818 818 818 816 816 816 815 815 814 813 813 813 812 812 812 812 811 811 810 810 810
796 800 813 830 832 826 823 827 830 824 821 821 820 823 824 828 836 833 839 851 847 843 847 847 837 816 807 815 810 802 805 806 809 811 808 811 813 813 817 817 818 818 818 820 823 824 826 825 825 825 824 823 822 821 821 820 820 820 820 820 820 819 819 818 818 818 817 817 816 815 815 815 814 813 812 812 812 811 811 810 810 809 808 808 807 807
796 802 815 827 827 826 829 835 842 835 826 822 819 821 821 821 822 820 827 842 850 855 857 855 843 817 807 817 816 810 812 813 816 817 811 811 813 814 817 818 818 819 819 823 824 825 826 825 825 825 823 823 822 822 822 821 820 820 820 820 819 819 819 818 818 817 816 816 815 815 814 814 813 812 811 811 810 810 809 809 808 807 806 806 805 805
794 797 809 823 827 828 829 831 838 836 828 823 821 823 823 820 817 817 824 832 840 847 850 852 844 816 805 819 821 817 820 818 819 819 813 812 814 815 817 817 818 819 821 824 825 825 825 824 824 825 824 825 824 823 823 821 821 821 820 820 819 819 819 818 818 817 816 816 815 814 813 812 812 811 810 810 809 808 808 807 806 805 804 803 803 802
787 790 801 819 827 828 828 829 829 828 826 822 819 823 822 820 824 828 832 833 832 836 835 835 832 814 805 816 817 814 814 811 814 818 815 814 815 816 817 816 817 820 822 824 824 824 825 825 825 826 826 827 825 825 824 822 822 822 821 821 820 820 820 819 819 818 816 815 814 814 813 812 811 810 809 809 808 807 806 805 804 803 802 801 801 800
783 789 793 804 815 819 820 819 813 811 820 821 819 822 821 821 822 820 827 831 828 834 834 822 816 811 807 809 808 807 808 807 811 816 817 816 816 816 816 816 818 821 821 822 824 826 826 826 827 827 828 827 826 825 825 824 823 823 823 822 821 821 821 820 819 818 816 815 814 813 812 811 810 809 808 808 807 806 805 804 803 802 801 800 799 798
783 789 787 787 792 795 794 795 794 796 808 815 816 819 820 822 820 816 824 827 823 834 837 819 809 810 807 806 806 805 806 807 809 813 814 815 816 816 815 816 820 822 823 824 825 826 827 828 829 829 829 829 828 827 826 824 823 823 823 823 822 822 821 820 819 817 816 815 814 813 812 811 810 809 808 808 807 806 804 803 802 801 799 798 797 796
781 786 787 783 783 785 785 788 792 793 797 805 812 817 820 821 821 819 817 814 816 828 827 814 811 810 805 805 805 804 805 807 808 808 809 812 815 817 817 818 821 823 826 827 827 827 828 830 831 832 832 831 829 826 824 823 823 824 824 823 823 822 821 819 818 817 816 815 814 813 812 811 811 810 809 808 807 806 804 803 801 800 799 797 796 795
778 782 787 786 786 789 790 792 794 791 794 802 807 811 816 820 820 817 811 809 812 812 806 806 810 806 803 802 800 799 801 801 802 807 809 812 814 816 818 818 820 823 825 826 826 828 830 831 832 832 832 829 825 823 823 823 824 824 823 823 822 821 820 819 818 817 816 815 814 813 813 812 811 810 809 808 807 805 804 802 801 799 798 797 795 794
777 779 786 788 787 790 794 796 797 794 796 803 807 808 812 815 813 810 805 805 807 802 800 806 806 800 799 796 792 796 800 802 805 809 811 812 813 814 815 816 819 822 824 825 828 830 830 830 831 830 827 824 822 823 824 824 824 824 823 823 822 820 819 818 817 816 815 815 814 813 813 812 811 810 809 807 806 805 803 802 800 799 797 796 794 793
778 781 788 788 788 792 796 798 802 802 798 799 807 812 814 813 812 808 803 804 809 807 807 811 808 802 801 796 793 798 803 805 806 806 807 810 812 813 814 816 819 822 825 828 830 830 829 828 826 824 822 821 822 823 823 823 823 823 822 822 820 820 819 818 817 816 815 815 814 813 812 811 810 809 807 806 805 804 802 801 799 797 796 794 793 791
779 785 790 790 788 791 800 805 808 809 804 802 807 811 813 811 807 804 802 803 805 805 809 816 810 799 797 795 793 797 801 803 802 801 804 808 811 813 812 814 820 824 827 829 827 825 824 823 821 821 821 822 822 822 822 822 822 821 821 820 819 818 818 817 816 815 814 814 813 811 810 809 808 807 805 804 803 801 800 798 797 795 794 792 791 789
780 781 786 790 786 792 813 817 807 806 809 805 798 796 800 803 800 801 804 802 799 799 804 808 798 788 790 792 790 794 799 800 798 800 802 805 809 812 811 814 821 825 824 823 821 821 821 821 822 822 822 823 822 823 823 822 821 821 820 819 818 818 817 816 815 814 813 812 811 810 809 807 806 805 803 802 800 799 798 796 794 793 791 789 788 787
782 777 783 788 782 797 824 819 803 806 806 791 780 779 786 792 794 798 799 794 793 793 792 790 787 786 791 791 788 790 791 792 795 798 801 803 805 809 813 816 818 819 819 819 819 820 821 822 823 823 823 824 824 824 823 822 822 821 820 819 818 817 816 815 813 813 812 810 809 808 807 806 805 803 802 800 799 797 796 794 792 791 789 787 786 784
780 778 785 787 784 803 823 812 802 805 794 777 776 778 779 782 787 791 789 785 790 793 789 787 787 787 789 789 788 787 786 791 798 801 804 805 804 805 809 813 814 815 817 819 820 822 822 823 823 824 824 825 824 824 823 822 821 820 819 818 817 816 815 814 813 812 810 809 808 807 806 804 803 802 800 799 797 796 794 792 791 789 787 785 783 781
777 779 783 787 790 805 816 805 792 789 781 776 780 782 781 784 789 793 791 786 787 790 790 787 783 784 789 792 792 792 794 799 802 803 806 808 806 805 806 810 814 816 817 819 821 822 823 823 824 825 825 825 825 824 823 822 821 820 819 818 817 816 814 813 812 811 809 808 807 806 805 803 802 800 799 797 795 793 792 790 788 786 784 782 780 779
775 775 778 784 787 795 806 802 788 782 779 774 773 775 777 778 780 785 785 779 775 779 784 782 778 783 789 792 797 801 801 800 799 802 806 807 807 807 808 810 814 815 817 820 821 821 822 823 824 824 825 825 824 823 823 822 821 819 818 817 816 815 813 812 811 810 809 808 807 805 804 803 801 799 797 795 793 791 789 788 786 785 783 780 778 776
775 773 775 780 781 784 795 799 795 791 782 768 763 767 768 768 769 774 777 772 764 767 775 775 775 782 787 792 800 803 800 797 794 796 803 807 808 809 810 812 814 815 817 819 819 821 822 822 823 824 824 824 824 823 822 821 820 819 817 816 815 813 812 811 810 809 808 807 806 805 804 802 800 798 796 794 792 790 788 787 785 784 782 780 777 774
780 777 776 781 784 785 788 789 788 785 773 761 759 763 766 768 768 773 782 776 761 761 770 772 774 779 781 787 797 799 796 794 790 791 799 805 807 808 810 812 814 816 817 818 819 820 821 821 822 823 822 822 822 821 820 819 818 817 815 814 813 812 811 811 810 809 808 807 806 805 803 802 800 798 795 793 792 790 788 786 784 783 781 779 776 773
784 783 782 785 786 785 785 784 780 773 765 760 761 765 770 769 767 776 787 776 757 758 765 766 769 773 775 784 794 793 787 784 782 787 798 804 806 809 810 812 814 816 817 819 819 820 821 822 822 821 821 820 820 819 819 818 817 816 815 814 813 812 812 811 810 809 808 807 805 804 802 801 799 797 795 793 790 789 787 785 783 780 778 776 774 771
784 784 784 783 782 781 781 780 777 768 761 760 765 770 772 770 770 775 773 762 755 758 763 763 764 766 772 783 788 783 781 782 783 788 797 803 805 809 811 812 815 816 817 819 820 820 821 820 820 820 820 820 820 819 818 817 816 816 815 815 814 813 813 812 811 809 807 806 804 802 801 799 797 796 794 791 789 786 784 783 781 778 776 773 771 769
777 780 783 781 780 781 778 777 776 767 758 760 769 774 771 768 768 765 761 763 765 764 766 768 766 767 774 781 781 780 785 790 790 792 799 803 805 809 812 813 815 816 817 818 818 818 818 818 818 819 819 819 819 818 817 817 817 816 816 815 815 814 813 811 809 808 806 804 802 800 798 797 795 793 791 789 787 784 781 780 779 776 774 771 768 766
765 772 778 776 775 778 779 780 776 765 758 761 767 771 769 763 758 755 758 768 772 769 768 770 769 771 776 778 782 787 791 793 794 796 801 804 806 809 811 812 814 815 816 816 817 817 817 817 818 818 819 819 819 818 818 818 817 816 816 815 814 813 811 809 807 805 803 801 799 797 796 794 792 791 789 787 785 782 779 777 776 774 771 769 767 764
758 762 767 764 762 768 773 770 761 754 757 759 755 756 759 758 756 757 756 760 768 773 772 770 772 776 776 777 784 790 791 794 797 799 801 805 807 809 811 812 813 814 815 816 817 817 817 817 818 818 818 819 819 818 818 817 816 816 814 813 812 810 808 807 805 803 801 799 797 795 793 791 790 789 787 785 783 781 778 775 773 770 768 766 765 762
751 753 754 752 752 754 756 755 752 753 759 760 755 755 756 757 761 764 759 758 765 771 770 770 773 777 778 779 784 788 790 794 797 798 802 805 806 808 810 812 813 814 816 817 817 817 818 818 818 819 819 819 819 818 818 817 815 814 812 811 810 808 806 804 802 800 798 796 795 793 791 789 788 787 785 783 781 779 776 773 771 768 765 763 761 759
754 755 752 748 749 752 753 754 757 760 760 761 763 765 764 762 763 765 761 760 764 767 769 771 773 776 778 779 782 787 791 794 796 800 802 804 807 809 810 812 814 815 816 817 817 818 818 819 820 820 820 819 819 817 816 815 814 812 811 809 807 805 804 802 800 798 796 795 793 791 790 787 785 783 781 780 779 777 774 772 769 765 762 760 758 757
757 758 754 750 750 752 751 752 758 761 762 763 765 766 766 766 766 765 762 761 764 768 770 772 773 776 779 778 780 786 792 794 796 800 803 805 808 809 810 812 814 814 815 817 818 818 819 820 820 820 818 817 816 814 813 812 811 810 808 807 805 804 802 801 799 797 795 793 791 789 788 785 783 780 778 776 774 773 770 768 767 764 760 756 755 754
752 754 755 753 752 753 755 759 766 768 767 768 767 763 763 765 766 767 767 766 767 770 772 774 776 777 779 780 782 786 791 795 796 799 803 806 807 809 811 812 813 814 816 817 818 819 819 819 818 817 815 814 812 811 810 809 808 808 806 805 805 804 802 801 799 796 794 792 791 789 787 785 782 779 776 773 771 769 767 764 763 760 756 753 753 751
752 753 754 753 753 757 760 764 769 766 762 763 765 763 764 767 767 769 770 770 770 771 774 777 779 779 780 783 784 786 790 796 797 799 802 805 807 809 811 812 813 815 816 816 817 817 816 815 814 813 813 812 811 810 809 808 807 807 806 805 805 804 802 800 797 796 793 791 789 788 785 783 780 778 775 771 768 765 763 761 760 757 752 748 748 748
752 750 752 755 757 755 751 753 758 755 748 751 756 760 765 769 769 769 770 771 771 772 773 777 781 784 784 785 786 787 791 796 799 801 803 805 808 810 811 812 813 813 813 813 813 813 812 812 812 811 810 810 809 808 807 807 806 806 806 806 804 802 801 798 796 794 792 790 788 786 783 780 778 776 774 770 766 762 757 754 753 753 749 744 741 742
747 744 746 749 749 745 741 744 750 747 741 745 752 757 764 767 766 766 768 769 771 773 773 775 779 784 788 789 790 790 792 796 800 802 804 806 808 809 810 811 810 810 811 811 810 810 810 810 809 808 808 807 807 807 806 806 805 805 805 804 802 801 799 798 796 793 790 789 787 785 782 779 776 773 770 768 765 762 757 750 744 742 742 741 738 735